• In Belarus
  • List of Countries
  • For 7 days
  • Water Temperature
  • Satellite Maps
  • Weather Map
  • Weather Widgets
  • user-avatar
    Login

    Hourly Weather Kandi

    Today, 26 March, Tuesday

    Time Temperature Precipitation Wind Pressure Humidity
    00:00 +37°C° 0 mm 1 mps 736 mmHg 25%
    01:00 +36°C° 0 mm 1 mps 736 mmHg 29%
    02:00 +36°C° 0 mm 2 mps 735 mmHg 33%
    03:00 +35°C° 0 mm 2 mps 735 mmHg 37%
    04:00 +35°C° 0 mm 2 mps 735 mmHg 42%
    05:00 +34°C° 0 mm 2 mps 736 mmHg 47%
    06:00 +32°C° 0 mm 2 mps 736 mmHg 55%
    07:00 +35°C° 0 mm 2 mps 736 mmHg 50%
    08:00 +36°C° 0 mm 2 mps 737 mmHg 45%
    09:00 +38°C° 0 mm 2 mps 737 mmHg 41%
    10:00 +40°C° 0 mm 2 mps 736 mmHg 34%
    11:00 +42°C° 0 mm 1 mps 736 mmHg 27%
    12:00 +45°C° 0 mm 1 mps 736 mmHg 21%
    13:00 +44°C° 0 mm 1 mps 735 mmHg 21%
    14:00 +43°C° 0 mm 1 mps 734 mmHg 22%
    15:00 +42°C° 0 mm 1 mps 734 mmHg 22%
    16:00 +42°C° 0 mm 1 mps 734 mmHg 22%
    17:00 +41°C° 0 mm 1 mps 734 mmHg 23%
    18:00 +38°C° 0 mm 0 mps 734 mmHg 23%
    19:00 +37°C° 0 mm 0 mps 734 mmHg 24%
    20:00 +37°C° 0 mm 0 mps 735 mmHg 24%
    21:00 +36°C° 0 mm 0 mps 735 mmHg 25%
    22:00 +36°C° 0 mm 0 mps 735 mmHg 26%
    23:00 +37°C° 0 mm 1 mps 735 mmHg 27%

    Tomorrow, 27 March, Wednesday

    Time Temperature Precipitation Wind Pressure Humidity
    00:00 +37°C° 0 mm 1 mps 735 mmHg 27%
    01:00 +36°C° 0 mm 1 mps 735 mmHg 27%
    02:00 +36°C° 0 mm 1 mps 735 mmHg 27%
    03:00 +35°C° 0 mm 1 mps 734 mmHg 27%
    04:00 +34°C° 0 mm 1 mps 735 mmHg 24%
    05:00 +33°C° 0 mm 1 mps 735 mmHg 22%
    06:00 +32°C° 0 mm 1 mps 736 mmHg 19%
    07:00 +35°C° 0 mm 2 mps 737 mmHg 20%
    08:00 +37°C° 0 mm 2 mps 738 mmHg 20%
    09:00 +39°C° 0 mm 3 mps 738 mmHg 20%
    10:00 +40°C° 0 mm 3 mps 738 mmHg 19%
    11:00 +42°C° 0 mm 3 mps 738 mmHg 17%
    12:00 +44°C° 0 mm 3 mps 737 mmHg 16%
    13:00 +43°C° 0 mm 2 mps 737 mmHg 15%
    14:00 +45°C° 0 mm 2 mps 736 mmHg 14%
    15:00 +46°C° 0 mm 2 mps 735 mmHg 12%
    16:00 +43°C° 0 mm 2 mps 735 mmHg 13%
    17:00 +42°C° 0 mm 1 mps 735 mmHg 13%
    18:00 +41°C° 0 mm 1 mps 735 mmHg 13%
    19:00 +41°C° 0 mm 1 mps 736 mmHg 13%
    20:00 +40°C° 0 mm 1 mps 736 mmHg 14%
    21:00 +39°C° 0 mm 1 mps 737 mmHg 14%
    22:00 +37°C° 0 mm 1 mps 737 mmHg 19%
    23:00 +37°C° 0 mm 2 mps 736 mmHg 25%

    Day after tomorrow, 28 March, Thursday

    Time Temperature Precipitation Wind Pressure Humidity
    00:00 +36°C° 0 mm 2 mps 736 mmHg 30%
    01:00 +35°C° 0 mm 2 mps 736 mmHg 34%
    02:00 +34°C° 0 mm 2 mps 735 mmHg 38%
    03:00 +32°C° 0 mm 1 mps 735 mmHg 42%
    04:00 +32°C° 0 mm 1 mps 735 mmHg 42%
    05:00 +31°C° 0 mm 1 mps 736 mmHg 42%
    06:00 +31°C° 0 mm 1 mps 736 mmHg 42%
    07:00 +33°C° 0 mm 1 mps 736 mmHg 32%
    08:00 +37°C° 0 mm 2 mps 737 mmHg 23%
    09:00 +39°C° 0 mm 2 mps 737 mmHg 13%
    10:00 +41°C° 0 mm 2 mps 737 mmHg 11%
    11:00 +43°C° 0 mm 2 mps 736 mmHg 9%
    12:00 +46°C° 0 mm 3 mps 736 mmHg 7%
    13:00 +46°C° 0 mm 3 mps 735 mmHg 7%
    14:00 +47°C° 0 mm 3 mps 734 mmHg 7%
    15:00 +47°C° 0 mm 3 mps 733 mmHg 7%
    16:00 +46°C° 0 mm 2 mps 733 mmHg 8%
    17:00 +45°C° 0 mm 2 mps 733 mmHg 9%
    18:00 +43°C° 0 mm 2 mps 733 mmHg 9%
    19:00 +41°C° 0 mm 2 mps 734 mmHg 10%
    20:00 +40°C° 0 mm 2 mps 735 mmHg 10%
    21:00 +39°C° 0 mm 2 mps 735 mmHg 10%
    22:00 +37°C° 0 mm 1 mps 735 mmHg 11%
    23:00 +37°C° 0 mm 1 mps 735 mmHg 12%

    29 March, Friday

    Time Temperature Precipitation Wind Pressure Humidity
    00:00 +36°C° 0 mm 1 mps 735 mmHg 13%
    01:00 +35°C° 0 mm 1 mps 734 mmHg 15%
    02:00 +34°C° 0 mm 1 mps 734 mmHg 17%
    03:00 +34°C° 0 mm 1 mps 733 mmHg 20%
    04:00 +33°C° 0 mm 1 mps 734 mmHg 27%
    05:00 +33°C° 0 mm 1 mps 734 mmHg 34%
    06:00 +32°C° 0 mm 1 mps 735 mmHg 41%
    07:00 +35°C° 0 mm 2 mps 735 mmHg 42%
    08:00 +36°C° 0 mm 2 mps 736 mmHg 43%
    09:00 +38°C° 0 mm 3 mps 737 mmHg 44%
    10:00 +40°C° 0 mm 3 mps 736 mmHg 36%
    11:00 +42°C° 0 mm 2 mps 736 mmHg 28%
    12:00 +46°C° 0 mm 2 mps 735 mmHg 20%
    13:00 +46°C° 0 mm 2 mps 734 mmHg 18%
    14:00 +47°C° 0 mm 2 mps 733 mmHg 16%
    15:00 +46°C° 0 mm 1 mps 732 mmHg 14%
    16:00 +45°C° 0 mm 1 mps 732 mmHg 15%
    17:00 +44°C° 0 mm 1 mps 732 mmHg 16%
    18:00 +43°C° 0 mm 1 mps 732 mmHg 17%
    19:00 +42°C° 0 mm 1 mps 733 mmHg 18%
    20:00 +42°C° 0 mm 1 mps 734 mmHg 19%
    21:00 +41°C° 0 mm 1 mps 734 mmHg 21%
    22:00 +40°C° 0 mm 1 mps 734 mmHg 22%
    23:00 +40°C° 0 mm 1 mps 734 mmHg 23%

    30 March, Saturday

    Time Temperature Precipitation Wind Pressure Humidity
    00:00 +39°C° 0 mm 1 mps 734 mmHg 25%
    01:00 +38°C° 0 mm 2 mps 734 mmHg 31%
    02:00 +37°C° 0 mm 3 mps 733 mmHg 37%
    03:00 +36°C° 0 mm 4 mps 733 mmHg 43%
    04:00 +35°C° 0 mm 4 mps 734 mmHg 48%
    05:00 +34°C° 0 mm 4 mps 734 mmHg 53%
    06:00 +34°C° 0 mm 4 mps 735 mmHg 58%
    07:00 +35°C° 0 mm 4 mps 736 mmHg 55%
    08:00 +36°C° 0 mm 4 mps 736 mmHg 52%
    09:00 +37°C° 0 mm 4 mps 737 mmHg 49%
    10:00 +39°C° 0 mm 3 mps 736 mmHg 42%
    11:00 +42°C° 0 mm 3 mps 735 mmHg 36%
    12:00 +43°C° 0 mm 2 mps 734 mmHg 29%
    13:00 +46°C° 0 mm 2 mps 734 mmHg 24%
    14:00 +47°C° 0 mm 1 mps 733 mmHg 19%
    15:00 +45°C° 0 mm 0 mps 732 mmHg 14%
    16:00 +44°C° 0 mm 0 mps 732 mmHg 15%
    17:00 +45°C° 0 mm 1 mps 733 mmHg 17%
    18:00 +44°C° 0 mm 1 mps 733 mmHg 18%
    19:00 +43°C° 0 mm 1 mps 733 mmHg 19%
    20:00 +42°C° 0 mm 1 mps 734 mmHg 21%
    21:00 +41°C° 0 mm 1 mps 734 mmHg 22%
    22:00 +41°C° 0 mm 1 mps 734 mmHg 24%
    23:00 +40°C° 0 mm 1 mps 734 mmHg 26%

    31 March, Sunday

    Time Temperature Precipitation Wind Pressure Humidity
    00:00 +40°C° 0 mm 1 mps 734 mmHg 28%
    01:00 +39°C° 0.4 mm 1 mps 733 mmHg 31%
    02:00 +38°C° 0.4 mm 2 mps 733 mmHg 34%
    03:00 +37°C° 0.4 mm 2 mps 733 mmHg 37%
    04:00 +37°C° 0 mm 2 mps 733 mmHg 39%
    05:00 +36°C° 0 mm 2 mps 733 mmHg 42%
    06:00 +35°C° 0 mm 3 mps 734 mmHg 44%
    07:00 +37°C° 0 mm 2 mps 734 mmHg 40%
    08:00 +39°C° 0 mm 2 mps 734 mmHg 36%
    09:00 +41°C° 0 mm 2 mps 735 mmHg 33%
    10:00 +43°C° 0 mm 2 mps 734 mmHg 27%
    11:00 +46°C° 0 mm 2 mps 734 mmHg 21%
    12:00 +48°C° 0 mm 1 mps 734 mmHg 15%
    13:00 +48°C° 0 mm 2 mps 733 mmHg 16%
    14:00 +47°C° 0 mm 2 mps 732 mmHg 16%
    15:00 +46°C° 0 mm 2 mps 731 mmHg 17%
    16:00 +45°C° 0 mm 2 mps 732 mmHg 17%
    17:00 +44°C° 0 mm 1 mps 732 mmHg 18%
    18:00 +43°C° 0 mm 1 mps 732 mmHg 19%
    19:00 +42°C° 0 mm 1 mps 733 mmHg 20%
    20:00 +42°C° 0 mm 1 mps 733 mmHg 20%
    21:00 +41°C° 0 mm 1 mps 734 mmHg 21%
    22:00 +40°C° 0.1 mm 1 mps 733 mmHg 23%
    23:00 +40°C° 0.1 mm 1 mps 733 mmHg 24%
    Show more